Regional Weather Roundup
Issued by NWS Northern Indiana

Home | Current Version | Previous Version | Graphics & Text | Print | Product List | Glossary On
Versions: 1 2 3 4 5 6 7 8 9 10 11 12 13 14 15 16 17 18 19 20 21 22 23 24 25 26 27 28 29 30 31 32 33 34 35 36 37 38 39 40 41 42 43 44 45 46 47 48 49 50
000
ASUS43 KIWX 231600
RWRIWX

KIWX WEATHER ROUNDUP
NATIONAL WEATHER SERVICE NORTHERN INDIANA
1200 PM EDT THU OCT 23 2014

NOTE: "FAIR" INDICATES FEW OR NO CLOUDS BELOW 12,000 FEET WITH NO
SIGNIFICANT WEATHER AND/OR OBSTRUCTIONS TO VISIBILITY.

* THESE STATIONS ARE NOT UNDER NWS QUALITY CONTROL. THEY ALSO MAY NOT
  REPORT WEATHER SUCH AS PRECIPITATION OR FOG.

INZ001>027-231700-
NORTHERN INDIANA

CITY           SKY/WX    TMP DP  RH WIND       PRES   REMARKS
GARY*          PTSUNNY   52  41  66 S9        30.22F
SOUTH BEND     SUNNY     52  43  71 SW8       30.25F
ELKHART*       SUNNY     46  45  93 S5        30.25F
GOSHEN         SUNNY     50  43  77 SW6       30.24F
ANGOLA*        SUNNY     48  43  81 SW6       30.24S
FORT WAYNE     MOSUNNY   50  41  71 SW8       30.26F
PERU/GRISSOM   MOSUNNY   52  47  84 SW6       30.24F

$$
INZ028>050-231700-
CENTRAL INDIANA

CITY           SKY/WX    TMP DP  RH WIND       PRES   REMARKS
LAFAYETTE      SUNNY     53  43  68 S8        30.23F
KOKOMO*        MOSUNNY   52 N/A N/A W6        30.26R
MUNCIE*        SUNNY     52  41  66 VRB3      30.25F
INDIANAPOLIS   MOSUNNY   51  41  68 CALM      30.24F

$$
MIZ043>046-050>051-056>058-064>065-071>073-077>080-231700-
SOUTHWEST LOWER MICHIGAN

CITY           SKY/WX    TMP DP  RH WIND       PRES   REMARKS
BATTLE CREEK   MOSUNNY   49  41  74 W8        30.24F
BENTON HARBOR  SUNNY     50  43  77 VRB5      30.23F
COLDWATER*     PTSUNNY   45  43  95 W6        30.25S FOG
HILLSDALE*     SUNNY     50  43  76 SW3       30.23F
HOLLAND        SUNNY     50  44  80 S7        30.24S
GRAND RAPIDS   PTSUNNY   51  42  71 W5        30.23F
KALAMAZOO      MOSUNNY   47  42  83 S8        30.24F
STURGIS*       MOSUNNY   43  43 100 SW3       30.24S FOG
THREE RIVERS*  FAIR      46  46 100 SW5       30.25S FOG

$$
OHZ001>008-015>018-024>025-231700-
NORTHWEST OHIO

CITY           SKY/WX    TMP DP  RH WIND       PRES   REMARKS
DEFIANCE       SUNNY     50  40  68 SW7       30.26F
FINDLAY        FOG       43  41  93 CALM      30.26S VSB 1/4
TOLEDO EXPRESS MOSUNNY   49  42  77 SW3       30.25F
TOLEDO METCALF SUNNY     51  39  63 NW5       30.26S
LIMA           SUNNY     50  41  71 VRB6      30.25F

$$
AND FOR LAKE MICHIGAN COASTAL AND OPEN LAKE BUOY OBSERVATIONS

STATION/POSITION TEMP    WIND        PRES    VSBY  WAVE
                 AIR SEA DIR/SP/G                  HT/PER
                 (F)     (DEG/KT/KT) (MB)    (MI)  (FT/S)
CALUMET HARBOR    51     180/  7/  9 1021.8F
MICHIGAN CITY     47     160/  8/ 11   N/A
SAINT JOSEPH      47                 1024.7R
SOUTH LAKE BUOY   51 54  210/ 12/ 14 1023.4F         2/ 4

$$
&&



USA.gov is the U.S. government's official web portal to all federal, state and local government web resources and services.